Flag Weather past 2 weeks in Colorado Springs, Colorado, U.S.A.

Now
63 °F

Broken clouds.


Feels Like: 63 °F
Forecast: 31 / 57 °F
Wind: No wind

Location: City Of Colorado Springs Municipal Airport

Current Time: Nov 27, 2014 at 11:51:19 AM

Latest Report: Nov 27, 2014 at 10:54 AM


Visibility: 10 mi

Pressure: 30.24 "Hg

Humidity: 10%

Dew point: 6 °F

Location of Colorado SpringsLocation

Historic Weather in Colorado Springs — Graph

°F

Colorado Springs temperature yesterday

Maximum temperature yesterday: 39 °F (at 2:54 PM)
Minimum temperature yesterday: 23 °F (at 3:54 AM)
Average temperature yesterday: 30 °F

Past Weeks' High & Low Weather Summary

 TemperatureHumidityPressure
High63 °F (Nov 27, 10:54 AM)93% (Nov 23, 5:54 PM)30.70 "Hg (Nov 23, 5:54 PM)
Low-3 °F (Nov 13, 3:54 AM)10% (Nov 27, 10:54 AM)29.40 "Hg (Nov 23, 12:54 AM)
Average28 °F58%30.14 "Hg
* Reported Nov 12 10:54 AM — Nov 27 10:54 AM, Colorado Springs, Weather by CustomWeather, © 2014

Note: Actual official high and low records may vary slightly from our data, if they occured in-between our weather recording intervals... More about our weather records

Advertising

Colorado Springs weather history for previous 24 hours

 ConditionsComfort  
Time TempWeatherWind HumidityBarometerVisibility
10:54 AM
Nov 27
63 °FBroken clouds.No wind10%30.24 "Hg10 mi
9:54 AM56 °FBroken clouds.No wind24%30.29 "Hg10 mi
8:54 AM50 °FBroken clouds.5 mph38%30.30 "Hg10 mi
7:54 AM40 °FBroken clouds.6 mph53%30.36 "Hg10 mi
6:54 AM34 °FBroken clouds.5 mph52%30.37 "Hg10 mi
5:54 AM35 °FPassing clouds.7 mph52%30.35 "Hg10 mi
4:54 AM34 °FPassing clouds.12 mph59%30.35 "Hg10 mi
3:54 AM37 °FOvercast.8 mph57%30.33 "Hg10 mi
2:54 AM29 °FPartly cloudy.9 mph75%30.37 "Hg10 mi
1:54 AM26 °FPassing clouds.8 mph81%30.40 "Hg10 mi
12:54 AM22 °FPassing clouds.7 mph89%30.43 "Hg10 mi
11:54 PM
Nov 26
23 °FClear.3 mph88%30.46 "Hg10 mi
10:54 PM27 °FPassing clouds.No wind81%30.45 "Hg10 mi
9:54 PM27 °FPassing clouds.5 mph81%30.45 "Hg10 mi
8:54 PM30 °FPassing clouds.6 mph75%30.43 "Hg10 mi
7:54 PM26 °FPassing clouds.3 mph81%30.45 "Hg10 mi
6:54 PM29 °FPassing clouds.3 mph75%30.41 "Hg10 mi
5:54 PM31 °FPassing clouds.3 mph73%30.39 "Hg10 mi
4:54 PM33 °FPassing clouds.6 mph70%30.35 "Hg10 mi
3:54 PM36 °FPartly sunny.7 mph64%30.33 "Hg10 mi
2:54 PM39 °FPartly sunny.10 mph60%30.29 "Hg10 mi
1:54 PM38 °FPartly sunny.5 mph63%30.28 "Hg10 mi
12:54 PM37 °FScattered clouds.3 mph65%30.27 "Hg10 mi
11:54 AM33 °FPartly sunny.3 mph72%30.29 "Hg10 mi
Weather by CustomWeather, © 2014

See weather overviewHow to use our weather pages